• en France
  • Liste des pays
  • À 7 jours
  • Température de l'eau
  • Carte satellitaire
  • Carte météo
  • Widgets météo
  • user-avatar
    Se connecter

    Météo par heure à Yopal

    Ce jour, 20 Février, Mardi

    Heure Température Précipitation Vent Pression Humidité
    00:00 +28°C° 0 mm 2 m/s 730 mmHg 53%
    01:00 +27°C° 0 mm 2 m/s 730 mmHg 53%
    02:00 +27°C° 0 mm 2 m/s 730 mmHg 53%
    03:00 +27°C° 0 mm 2 m/s 730 mmHg 53%
    04:00 +27°C° 0 mm 2 m/s 730 mmHg 52%
    05:00 +27°C° 0 mm 2 m/s 730 mmHg 51%
    06:00 +27°C° 0 mm 3 m/s 730 mmHg 50%
    07:00 +27°C° 0 mm 3 m/s 731 mmHg 49%
    08:00 +29°C° 0 mm 4 m/s 731 mmHg 45%
    09:00 +32°C° 0 mm 4 m/s 732 mmHg 41%
    10:00 +34°C° 0 mm 5 m/s 732 mmHg 37%
    11:00 +35°C° 0 mm 5 m/s 731 mmHg 35%
    12:00 +36°C° 0 mm 5 m/s 730 mmHg 33%
    13:00 +37°C° 0 mm 5 m/s 730 mmHg 31%
    14:00 +37°C° 0 mm 4 m/s 729 mmHg 32%
    15:00 +36°C° 0 mm 4 m/s 729 mmHg 33%
    16:00 +36°C° 0 mm 4 m/s 728 mmHg 34%
    17:00 +34°C° 0 mm 3 m/s 728 mmHg 37%
    18:00 +31°C° 0 mm 2 m/s 729 mmHg 41%
    19:00 +30°C° 0 mm 2 m/s 729 mmHg 44%
    20:00 +29°C° 0 mm 2 m/s 729 mmHg 45%
    21:00 +28°C° 0 mm 1 m/s 730 mmHg 47%
    22:00 +28°C° 0 mm 1 m/s 730 mmHg 48%
    23:00 +27°C° 0 mm 1 m/s 730 mmHg 48%

    Demain, 21 Février, Mercredi

    Heure Température Précipitation Vent Pression Humidité
    00:00 +27°C° 0 mm 1 m/s 730 mmHg 48%
    01:00 +26°C° 0 mm 1 m/s 730 mmHg 48%
    02:00 +26°C° 0 mm 1 m/s 730 mmHg 47%
    03:00 +26°C° 0 mm 1 m/s 730 mmHg 46%
    04:00 +26°C° 0 mm 1 m/s 730 mmHg 45%
    05:00 +26°C° 0 mm 2 m/s 730 mmHg 44%
    06:00 +26°C° 0 mm 2 m/s 731 mmHg 43%
    07:00 +27°C° 0 mm 2 m/s 731 mmHg 43%
    08:00 +29°C° 0 mm 3 m/s 732 mmHg 40%
    09:00 +32°C° 0 mm 4 m/s 732 mmHg 37%
    10:00 +34°C° 0 mm 5 m/s 732 mmHg 34%
    11:00 +35°C° 0 mm 5 m/s 732 mmHg 33%
    12:00 +36°C° 0 mm 5 m/s 731 mmHg 32%
    13:00 +37°C° 0 mm 5 m/s 730 mmHg 31%
    14:00 +37°C° 0 mm 4 m/s 729 mmHg 31%
    15:00 +37°C° 0 mm 4 m/s 728 mmHg 32%
    16:00 +37°C° 0 mm 4 m/s 728 mmHg 32%
    17:00 +35°C° 0 mm 3 m/s 728 mmHg 37%
    18:00 +32°C° 0 mm 2 m/s 729 mmHg 41%
    19:00 +30°C° 0 mm 2 m/s 729 mmHg 46%
    20:00 +29°C° 0 mm 2 m/s 730 mmHg 47%
    21:00 +29°C° 0 mm 2 m/s 730 mmHg 49%
    22:00 +28°C° 0 mm 1 m/s 731 mmHg 50%
    23:00 +28°C° 0 mm 1 m/s 731 mmHg 51%

    Après-demain, 22 Février, Jeudi

    Heure Température Précipitation Vent Pression Humidité
    00:00 +27°C° 0 mm 1 m/s 730 mmHg 52%
    01:00 +27°C° 0 mm 1 m/s 730 mmHg 52%
    02:00 +27°C° 0 mm 2 m/s 730 mmHg 53%
    03:00 +27°C° 0 mm 2 m/s 730 mmHg 53%
    04:00 +27°C° 0 mm 2 m/s 729 mmHg 54%
    05:00 +27°C° 0 mm 2 m/s 730 mmHg 53%
    06:00 +27°C° 0 mm 3 m/s 730 mmHg 53%
    07:00 +28°C° 0 mm 3 m/s 731 mmHg 52%
    08:00 +30°C° 0 mm 4 m/s 731 mmHg 48%
    09:00 +32°C° 0 mm 4 m/s 732 mmHg 44%
    10:00 +34°C° 0 mm 5 m/s 732 mmHg 40%
    11:00 +35°C° 0 mm 5 m/s 731 mmHg 40%
    12:00 +35°C° 0 mm 4 m/s 731 mmHg 39%
    13:00 +36°C° 0 mm 4 m/s 730 mmHg 39%
    14:00 +36°C° 0,1 mm 4 m/s 729 mmHg 40%
    15:00 +35°C° 0,1 mm 3 m/s 728 mmHg 41%
    16:00 +35°C° 0,1 mm 3 m/s 728 mmHg 42%
    17:00 +34°C° 0,1 mm 3 m/s 728 mmHg 45%
    18:00 +31°C° 0,1 mm 2 m/s 728 mmHg 49%
    19:00 +30°C° 0,1 mm 2 m/s 729 mmHg 53%
    20:00 +29°C° 0 mm 2 m/s 729 mmHg 53%
    21:00 +29°C° 0 mm 2 m/s 730 mmHg 54%
    22:00 +28°C° 0 mm 2 m/s 730 mmHg 55%
    23:00 +28°C° 0 mm 2 m/s 730 mmHg 56%

    23 Février, Vendredi

    Heure Température Précipitation Vent Pression Humidité
    00:00 +28°C° 0 mm 1 m/s 730 mmHg 56%
    01:00 +27°C° 0 mm 1 m/s 730 mmHg 56%
    02:00 +27°C° 0 mm 1 m/s 730 mmHg 56%
    03:00 +27°C° 0 mm 2 m/s 729 mmHg 55%
    04:00 +27°C° 0 mm 2 m/s 729 mmHg 55%
    05:00 +27°C° 0 mm 2 m/s 730 mmHg 54%
    06:00 +27°C° 0 mm 3 m/s 731 mmHg 53%
    07:00 +28°C° 0 mm 3 m/s 731 mmHg 52%
    08:00 +30°C° 0 mm 4 m/s 731 mmHg 48%
    09:00 +32°C° 0 mm 4 m/s 731 mmHg 43%
    10:00 +34°C° 0 mm 5 m/s 732 mmHg 39%
    11:00 +35°C° 0 mm 4 m/s 731 mmHg 38%
    12:00 +36°C° 0 mm 4 m/s 730 mmHg 37%
    13:00 +36°C° 0 mm 4 m/s 729 mmHg 37%
    14:00 +36°C° 0 mm 4 m/s 728 mmHg 37%
    15:00 +36°C° 0 mm 3 m/s 727 mmHg 37%
    16:00 +36°C° 0 mm 3 m/s 727 mmHg 37%
    17:00 +35°C° 0,1 mm 3 m/s 727 mmHg 41%
    18:00 +32°C° 0,1 mm 2 m/s 727 mmHg 45%
    19:00 +30°C° 0,1 mm 1 m/s 728 mmHg 49%
    20:00 +30°C° 0,1 mm 1 m/s 728 mmHg 50%
    21:00 +29°C° 0,1 mm 1 m/s 729 mmHg 50%
    22:00 +29°C° 0,1 mm 1 m/s 730 mmHg 51%
    23:00 +29°C° 0 mm 1 m/s 729 mmHg 51%

    24 Février, Samedi

    Heure Température Précipitation Vent Pression Humidité
    00:00 +28°C° 0 mm 1 m/s 729 mmHg 51%
    01:00 +28°C° 0 mm 1 m/s 729 mmHg 50%
    02:00 +28°C° 0 mm 1 m/s 729 mmHg 50%
    03:00 +27°C° 0 mm 1 m/s 728 mmHg 50%
    04:00 +27°C° 0 mm 2 m/s 728 mmHg 50%
    05:00 +27°C° 0 mm 2 m/s 729 mmHg 49%
    06:00 +27°C° 0 mm 2 m/s 730 mmHg 48%
    07:00 +28°C° 0 mm 2 m/s 730 mmHg 47%
    08:00 +30°C° 0 mm 2 m/s 730 mmHg 43%
    09:00 +33°C° 0 mm 3 m/s 731 mmHg 39%
    10:00 +35°C° 0 mm 4 m/s 731 mmHg 35%
    11:00 +36°C° 0 mm 4 m/s 730 mmHg 34%
    12:00 +37°C° 0 mm 4 m/s 729 mmHg 33%
    13:00 +38°C° 0 mm 3 m/s 728 mmHg 32%
    14:00 +37°C° 0,1 mm 3 m/s 728 mmHg 33%
    15:00 +37°C° 0,1 mm 3 m/s 727 mmHg 34%
    16:00 +37°C° 0,1 mm 3 m/s 726 mmHg 36%
    17:00 +35°C° 0,1 mm 2 m/s 727 mmHg 40%
    18:00 +32°C° 0,1 mm 2 m/s 727 mmHg 44%
    19:00 +31°C° 0,1 mm 1 m/s 728 mmHg 49%
    20:00 +30°C° 0,1 mm 1 m/s 729 mmHg 50%
    21:00 +30°C° 0,1 mm 1 m/s 729 mmHg 51%
    22:00 +29°C° 0,1 mm 1 m/s 730 mmHg 51%
    23:00 +29°C° 0 mm 1 m/s 729 mmHg 52%

    25 Février, Dimanche

    Heure Température Précipitation Vent Pression Humidité
    00:00 +28°C° 0 mm 1 m/s 729 mmHg 53%
    01:00 +28°C° 0 mm 1 m/s 729 mmHg 54%
    02:00 +28°C° 0 mm 1 m/s 729 mmHg 54%
    03:00 +27°C° 0 mm 1 m/s 729 mmHg 53%
    04:00 +27°C° 0 mm 2 m/s 729 mmHg 53%
    05:00 +27°C° 0 mm 2 m/s 729 mmHg 52%
    06:00 +28°C° 0 mm 2 m/s 730 mmHg 50%
    07:00 +28°C° 0 mm 2 m/s 730 mmHg 49%
    08:00 +30°C° 0 mm 2 m/s 731 mmHg 44%
    09:00 +33°C° 0 mm 3 m/s 731 mmHg 40%
    10:00 +36°C° 0 mm 4 m/s 731 mmHg 35%
    11:00 +36°C° 0 mm 4 m/s 730 mmHg 34%
    12:00 +37°C° 0 mm 3 m/s 729 mmHg 33%
    13:00 +38°C° 0 mm 3 m/s 729 mmHg 32%
    14:00 +38°C° 0,1 mm 3 m/s 728 mmHg 33%
    15:00 +37°C° 0,1 mm 3 m/s 727 mmHg 35%
    16:00 +37°C° 0,1 mm 3 m/s 727 mmHg 36%
    17:00 +36°C° 0,2 mm 2 m/s 727 mmHg 40%
    18:00 +34°C° 0,2 mm 2 m/s 728 mmHg 45%
    19:00 +32°C° 0,2 mm 1 m/s 728 mmHg 50%
    20:00 +31°C° 0,3 mm 2 m/s 729 mmHg 52%
    21:00 +30°C° 0,3 mm 2 m/s 729 mmHg 54%
    22:00 +29°C° 0,3 mm 2 m/s 730 mmHg 57%
    23:00 +29°C° 0,1 mm 2 m/s 729 mmHg 58%
    Voir plus